This demonstration page uses our WeatherBlox Daily Observations layout. Learn more.

Left ArrowRight Arrow

Hourly Observations for May 2, 2015

Temp ( °F °C ) Dew Point ( °F °C ) Humidity (%) Winds ( mph kmh ) Pressure ( in mb ) Visibility ( mi km ) Precip ( " mm )
12:53 am 00:53 Clear 64 17.8 44 6.7 48 48 Calm 29.78 1008 10 16 0.00 0.00
1:53 am 01:53 Clear 64 17.8 46 7.8 52 52 NW 6 9 29.78 1008 10 16 0.00 0.00
2:53 am 02:53 Clear 61 16.1 47 8.3 60 60 WSW 3 6 29.77 1008 10 16 0.00 0.00
3:53 am 03:53 Clear 62 16.7 46 7.8 56 56 NNW 7 11 29.77 1008 10 16 0.00 0.00
4:53 am 04:53 Clear 59 15 46 7.8 62 62 Calm 29.78 1009 10 16 0.00 0.00
5:53 am 05:53 Clear 57 13.9 47 8.3 69 69 ENE 3 6 29.79 1009 10 16 0.00 0.00
6:53 am 06:53 Sunny 59 15 46 8 63 63 undefined N/A N/A 2 3 0.00 0.00
7:53 am 07:53 Sunny 65 18.3 48 8.9 54 54 N 6 9 29.80 1009 10 16 0.00 0.00
8:53 am 08:53 Sunny 71 21.7 47 8.3 42 42 Calm 29.80 1009 10 16 0.00 0.00
9:53 am 09:53 Sunny 75 23.9 46 7.8 36 36 VRB 3 6 29.81 1010 10 16 0.00 0.00
10:53 am 10:53 Sunny 78 25.6 47 8.3 33 33 VRB 3 6 29.81 1010 10 16 0.00 0.00
11:53 am 11:53 Sunny 81 27.2 44 6.7 27 27 SSE 7 11 29.80 1009 10 16 0.00 0.00
12:53 pm 12:53 Sunny 83 28.3 43 6.1 24 24 SSE 9 15 29.79 1009 10 16 0.00 0.00
1:53 pm 13:53 Sunny 85 29.4 42 5.6 22 22 VRB 7 11 29.76 1008 10 16 0.00 0.00
2:53 pm 14:53 Sunny 87 30.6 42 5.6 21 21 VRB 7 11 29.74 1007 10 16 0.00 0.00
3:53 pm 15:53 Sunny 89 31.7 41 5 19 19 SSE 12 19 29.72 1006 10 16 0.00 0.00
4:53 pm 16:53 Sunny 89 31.7 42 5.6 19 19 S 10 17 29.70 1006 10 16 0.00 0.00
5:53 pm 17:53 Sunny 88 31.1 40 4.4 18 18 SSE 10 17 29.69 1006 10 16 0.00 0.00
6:53 pm 18:53 Sunny 86 30 47 8.3 26 26 SSE 9 15 29.69 1005 10 16 0.00 0.00
7:53 pm 19:53 Sunny 81 27.2 49 9.4 33 33 SSE 6 9 29.69 1005 10 16 0.00 0.00
8:53 pm 20:53 Clear 79 26.1 50 10 36 36 SSW 5 7 29.70 1006 10 16 0.00 0.00
9:53 pm 21:53 Clear 74 23.3 50 10 43 43 N 6 9 29.73 1007 10 16 0.00 0.00
10:53 pm 22:53 Clear 75 23.9 49 9.4 40 40 SW 5 7 29.75 1007 10 16 0.00 0.00
11:53 pm 23:53 Clear 73 22.8 49 9.4 43 43 WNW 7 11 29.75 1008 10 16 0.00 0.00

Powered by AerisWeather